EW1448 Weather Reports


time (UTC)temp
C
wind
direction
speed
KPH
gust
KPH
rain 1hr
cm
rain 24hr
cm
rain mn
cm
humidity
%
barometer
mb
20211025034536 13 257 1.6 4.8 0.00 0.00 0.00 43 1017.0
20211025033031 13 278 1.6 6.4 0.00 0.00 0.00 42 1016.8
20211025031610 13 263 1.6 4.8 0.00 0.00 0.00 40 1016.7
20211025030039 15 300 0.0 1.6 0.00 0.00 0.00 37 1016.6
20211025024539 16 347 0.0 1.6 0.00 0.00 0.00 35 1016.5
20211025023024 17 344 1.6 4.8 0.00 0.00 0.00 32 1016.4
20211025021542 19 172 3.2 12.9 0.00 0.00 0.00 28 1016.2
20211025020029 19 155 6.4 11.3 0.00 0.00 0.00 30 1016.1
20211025014547 19 199 4.8 12.9 0.00 0.00 0.00 32 1015.9
20211024181533 21 67 1.6 9.7 0.00 0.00 0.00 38 1017.2
20211024180026 20 141 1.6 8.0 0.00 0.00 0.00 41 1017.4
20211024174545 18 63 1.6 4.8 0.00 0.00 0.00 43 1017.7
20211024173032 18 49 1.6 6.4 0.00 0.00 0.00 43 1017.7
20211024171548 17 15 3.2 6.4 0.00 0.00 0.00 44 1017.7
20211024170041 16 58 0.0 6.4 0.00 0.00 0.00 44 1017.5
20211024164545 16 36 1.6 4.8 0.00 0.00 0.00 45 1017.4
20211024163031 16 335 0.0 0.0 0.00 0.00 0.00 48 1017.2
20211024161547 16 34 0.0 0.0 0.00 0.00 0.00 48 1017.2
20211024160040 15 79 0.0 0.0 0.00 0.00 0.00 49 1017.1
20211024154538 15 21 0.0 0.0 0.00 0.00 0.00 50 1016.9
20211024153028 14 8 0.0 0.0 0.00 0.00 0.00 51 1017.0
20211024151529 13 53 0.0 3.2 0.00 0.00 0.00 53 1016.8
20211024150040 12 33 0.0 1.6 0.00 0.00 0.00 57 1016.6
20211024144534 10 272 0.0 0.0 0.00 0.00 0.00 62 1016.3
20211024143030 8 273 0.0 0.0 0.00 0.00 0.00 68 1016.0
20211024141546 8 273 0.0 0.0 0.00 0.00 0.00 68 1015.8
20211024140042 7 272 0.0 3.2 0.00 0.00 0.00 70 1015.5